Tracking 20041 objects as of 22-Nov-2019
Live streaming from Space Station
objects crossing your sky now

NOAA 16 DEB

Track NOAA 16 DEB now!
10-day predictions


NORAD ID: 41204
Int'l Code: 2000-055DH
Perigee: 851.8 km
Apogee: 889.3 km
Inclination: 98.9 °
Period: 102.2 minutes
Semi major axis: 7241 km
RCS: Unknown
Launch date: September 21, 2000
Source: United States (US)
Launch site: AIR FORCE WESTERN TEST RANGE (AFWTR)

Note: This is SATELLITE DEBRIS
aabbcc
Your satellite tracking list
Your tracking list is empty




NASA's NSSDC Master Catalog

Two Line Element Set (TLE):
1 41204U 00055DH  19326.04783448  .00000559  00000-0  34814-3 0  9992
2 41204  98.8759  35.7448 0025940 199.5011 160.5169 14.08821078203503
Source of the keplerian elements: AFSPC